Miscellaneous Local Product
Issued by NWS Hastings, NE

Home | Current Version | Previous Version | Text Only | Print | Product List | Glossary On
Versions: 1 2 3 4 5 6 7 8 9 10 11 12 13 14 15 16 17 18 19 20 21 22 23 24 25 26 27 28 29 30 31 32 33 34 35 36 37 38 39 40 41 42 43 44 45 46 47 48 49 50
000
AXUS43 KGID 161002
MISGRI

GID CWA HOURLY WEATHER ROUNDUP
NATIONAL WEATHER SERVICE HASTINGS NE
400 AM CST SAT DEC 16 2017

NOTE: "FAIR" INDICATES FEW OR NO CLOUDS BELOW 12,000 FEET WITH NO
SIGNIFICANT WEATHER AND/OR OBSTRUCTIONS TO VISIBILITY.

...SOUTH CENTRAL NEBRASKA...

CITY           SKY/WX    TMP DP  RH WIND       PRES   REMARKS
GRAND ISLAND   CLOUDY    32  19  58 W9        29.73S WCI  24
KEARNEY        CLOUDY    29  16  58 SW3       29.74S
HASTINGS       CLOUDY    30  15  53 SW8       29.73F WCI  22
ORD            CLOUDY    26  21  81 N3        29.72R
YORK           CLOUDY    30  21  69 SW9       29.74S WCI  22
AURORA         CLOUDY    29  19  66 SW8       29.73S WCI  21
LEXINGTON      PTCLDY    28  17  64 W3        29.75S
HOLDREGE       CLOUDY    31  14  48 W5        29.74F WCI  26
HEBRON         CLOUDY    34  21  58 SW5       29.77F WCI  30

...NEBRASKA PANHANDLE...

CITY           SKY/WX    TMP DP  RH WIND       PRES   REMARKS
CHADRON        CLOUDY    26  16  65 W3        29.77R
ALLIANCE       CLOUDY    22  12  65 SW3       29.75R
SCOTTSBLUFF    CLOUDY    31   9  39 NE3       29.75R
SIDNEY         CLOUDY    36   7  29 W9        29.76S WCI  29

...WESTERN AND NORTH CENTRAL NEBRASKA...

CITY           SKY/WX    TMP DP  RH WIND       PRES   REMARKS
VALENTINE      CLOUDY    28  22  78 W6        29.73R WCI  22
AINSWORTH      CLOUDY    32  24  73 NW6       29.71S WCI  26
ONEILL         CLOUDY    30  25  79 W5        29.71R WCI  26
BROKEN BOW     CLOUDY    39  19  44 NW7       29.72F WCI  34
IMPERIAL       CLOUDY    26  13  57 SW5       29.76S WCI  20
NORTH PLATTE   CLOUDY    28  21  75 W7        29.74F WCI  21
MCCOOK         CLOUDY    26  12  55 W9        29.76S WCI  17

...EASTERN NEBRASKA...

CITY           SKY/WX    TMP DP  RH WIND       PRES   REMARKS
NORFOLK        CLEAR     33  22  63 SW5       29.71R WCI  29
SO SIOUX CITY  PTCLDY    24  20  84 SE7       29.70R WCI  16
TEKAMAH        CLOUDY    31  19  61 VRB3      29.72S
COLUMBUS       CLOUDY    29  22  75 W5        29.73S WCI  24
ALBION         PTCLDY    31  24  74 CALM      29.72S
OMAHA EPPLEY   PTCLDY    31  22  69 SE8       29.74S WCI  23
OFFUTT AFB     CLOUDY    28  20  72 CALM      29.74S
MILLARD        CLEAR     41  22  47 CALM      29.74S
LINCOLN        CLEAR     34  20  56 S3        29.76S
NEBRASKA CITY  CLEAR     39  25  57 SW16      29.75S WCI  30
BEATRICE       CLOUDY    35  24  64 S5        29.77F WCI  30
FALLS CITY     CLEAR     36  24  62 S9        29.79F WCI  29

...NORTHERN KANSAS...

CITY           SKY/WX    TMP DP  RH WIND       PRES   REMARKS
GOODLAND       CLOUDY    31  12  45 W7        29.74F WCI  24
HILL CITY      CLOUDY    31  14  49 W7        29.77S WCI  24
NORTON         SUNNY     28  10  47 SW8       29.75S WCI  20
PHILLIPSBURG   CLEAR     28  14  54 CALM      29.77F
HAYS           CLOUDY    31  19  61 SW9       29.79F WCI  23
RUSSELL        CLOUDY    31  20  63 S14       29.78F WCI  21
CONCORDIA      CLOUDY    38  21  50 CALM      29.79S
SALINA         CLEAR     34  24  67 S10       29.83F WCI  26
TOPEKA         CLEAR    N/A N/A N/A S3        29.87S



USA.gov is the U.S. government's official web portal to all federal, state and local government web resources and services.